Regional Weather Roundup
Issued by NWS Midland/Odessa, TX

Skip options and go directly to product.
Home | Oldest Version | Previous Version | Current Version | All | Graphics & Text | Save Text | Print | Product List | Glossary On

Skip product version selection by date and time.   
985
ASUS44 KMAF 310610
RWRMAF
MIDLAND AREA WEATHER ROUNDUP
NATIONAL WEATHER SERVICE MIDLAND TX
100 AM CDT MON AUG 31 2015

...IN SOUTHWEST TEXAS AND SOUTHEAST NEW MEXICO...

CITY           SKY/WX    TMP DP  RH WIND       PRES   REMARKS
ALPINE         FAIR      70  51  50 S6        30.19R
ANDREWS        FAIR      71  58  63 S7        30.07S
ARTESIA        CLEAR     68  52  56 S9        30.06S
BIG SPRING     FAIR      70  55  59 SE10      30.06S
CARLSBAD       CLEAR     71  48  43 S9        30.04R
DRYDEN           N/A     73  61  65 NW6       30.02R
FORT STOCKTON  FAIR      74  57  55 SE14      30.05R
GUAD PASS      CLEAR     68  45  43 NE13      30.20S
HOBBS            N/A     66  57  72 S7        30.10R
MARFA          FAIR      63  48  59 N5        30.17R
MIDLAND AIRPK  FAIR      74  56  54 S9        30.06S
MIDLAND INTL   FAIR      73  57  57 S7        30.05S
ODESSA         FAIR      74  56  53 S12       30.06S
PECOS          FAIR      75  55  50 SE6       30.02R
PRESIDIO       NOT AVBL
SEMINOLE       FAIR      68  56  64 S7        30.08R
SNYDER         FAIR      71  57  61 S6        30.04R
WINK           FAIR      74  59  59 SE9       30.03R
$$
...OTHER STATIONS IN TEXAS...

CITY           SKY/WX    TMP DP  RH WIND       PRES   REMARKS
ABILENE        FAIR      76  58  53 S10       30.00S
AMARILLO       FAIR      68  53  58 S10       30.05S
AUSTIN         MOCLDY    71  67  87 CALM      29.98S
BROWNSVILLE    FAIR      75  73  93 CALM      29.96R
CORPUS CHRISTI MOCLDY    80  73  79 SE6       29.96R
DALLAS FTW     FAIR      80  63  55 S10       29.95R
DEL RIO        FAIR      77  63  61 E9        29.95R
EL PASO        CLEAR     76  51  41 SE7       30.04S
HOUSTON INT    FAIR      75  69  81 S5        29.99S
LUBBOCK        FAIR      74  54  49 S13       30.05R
SAN ANGELO     FAIR      70  62  76 CALM      30.02S
SAN ANTONIO    MOCLDY    79  68  69 SE8       29.99R
WACO           FAIR      73  67  81 SE5       29.97S
WICHITA FALLS  NOT AVBL
$$
...OTHER LOCATIONS IN NEW MEXICO...

CITY           SKY/WX    TMP DP  RH WIND       PRES   REMARKS
ALAMAGORDO     CLEAR     75  45  33 S10       30.07S
ALBUQUERQUE    PTCLDY    78  48  34 N8        30.14R
CANNON AFB     CLEAR     64  49  59 SW6       30.10R
CLOVIS         CLEAR     63  48  59 SW7       30.11R
HOLLOMAN AFB   CLEAR     78  45  31 N14       30.05R
ROSWELL        CLEAR     69  52  54 SW8       30.05S
RUIDOSO        CLEAR     64  45  48 MISG      30.28F
SANTA FE       PTCLDY    69  44  40 E3        30.19R
TRUTH OR CONSE CLEAR     75  49  39 W5        30.09F
TUCUMCARI      CLEAR     66  49  54 SW6       30.05R
$$

USA.gov is the U.S. government's official web portal to all federal, state and local government web resources and services.